RYR8QA EIDW-LFBT

Flight info

Callsign RYR8QA
Flight time 1h 42m
Altitude 37000
Route PESIT4E PESIT DCT BAKUR DCT GUBJE DCT GISOK DCT TACQI DCT MANIG DCT KORER UM616 TUPAR DCT CNA DCT UVELI DCT AGN
Aircraft B38M/M-SDE1FGHILORVWXY/HB1

Departure

Time 2026-05-08 08:14
Airport Dublin Airport (EIDW)

Arrival

Time 2026-05-08 09:56
Airport Tarbes-Lourdes-Pyrénées Airport (LFBT)
Time Latitude Longitude Altitude Speed Heading
2026-05-08 07:51 53.43113 -6.25024 220 ft 0 kts 185°
2026-05-08 08:02 53.43130 -6.25022 213 ft 2 kts 185°
2026-05-08 08:03 53.43146 -6.25019 213 ft 2 kts 185°
2026-05-08 08:03 53.43162 -6.25017 213 ft 2 kts 185°
2026-05-08 08:03 53.43177 -6.25010 217 ft 2 kts 208°
2026-05-08 08:03 53.43189 -6.24992 220 ft 2 kts 238°
2026-05-08 08:04 53.43195 -6.24967 213 ft 2 kts 266°
2026-05-08 08:04 53.43195 -6.24954 215 ft 0 kts 273°
2026-05-08 08:06 53.43196 -6.24970 213 ft 2 kts 273°
2026-05-08 08:06 53.43197 -6.25007 217 ft 5 kts 275°
2026-05-08 08:07 53.43201 -6.25090 221 ft 9 kts 274°
2026-05-08 08:07 53.43208 -6.25208 213 ft 11 kts 276°
2026-05-08 08:07 53.43197 -6.25351 215 ft 13 kts 246°
2026-05-08 08:07 53.43178 -6.25447 215 ft 7 kts 258°
2026-05-08 08:08 53.43138 -6.25490 218 ft 9 kts 169°
2026-05-08 08:08 53.43061 -6.25436 215 ft 15 kts 156°
2026-05-08 08:08 53.42955 -6.25358 218 ft 18 kts 156°
2026-05-08 08:08 53.42847 -6.25279 213 ft 11 kts 158°
2026-05-08 08:09 53.42767 -6.25299 213 ft 13 kts 223°
2026-05-08 08:09 53.42699 -6.25416 215 ft 15 kts 225°
2026-05-08 08:09 53.42615 -6.25559 218 ft 20 kts 225°
2026-05-08 08:09 53.42508 -6.25742 213 ft 23 kts 225°
2026-05-08 08:10 53.42390 -6.25942 213 ft 25 kts 226°
2026-05-08 08:10 53.42285 -6.26144 216 ft 21 kts 241°
2026-05-08 08:10 53.42270 -6.26397 213 ft 23 kts 275°
2026-05-08 08:10 53.42287 -6.26675 213 ft 25 kts 275°
2026-05-08 08:11 53.42303 -6.26976 213 ft 27 kts 275°
2026-05-08 08:11 53.42321 -6.27298 213 ft 29 kts 275°
2026-05-08 08:11 53.42340 -6.27639 215 ft 30 kts 275°
2026-05-08 08:11 53.42360 -6.27994 213 ft 30 kts 275°
2026-05-08 08:12 53.42373 -6.28241 217 ft 12 kts 272°
2026-05-08 08:12 53.42320 -6.28326 214 ft 11 kts 183°
2026-05-08 08:12 53.42260 -6.28267 214 ft 9 kts 140°
2026-05-08 08:12 53.42208 -6.28253 217 ft 6 kts 166°
2026-05-08 08:13 53.42195 -6.28178 217 ft 12 kts 93°
2026-05-08 08:13 53.42170 -6.27669 212 ft 84 kts 95°
2026-05-08 08:13 53.42095 -6.26294 214 ft 151 kts 95°
2026-05-08 08:13 53.41979 -6.24339 625 ft 174 kts 96°
2026-05-08 08:14 53.41819 -6.22294 1467 ft 176 kts 97°
2026-05-08 08:14 53.41702 -6.20244 2328 ft 183 kts 95°
2026-05-08 08:14 53.41596 -6.17957 2830 ft 212 kts 96°
2026-05-08 08:14 53.41466 -6.15336 3398 ft 238 kts 96°
2026-05-08 08:15 53.41318 -6.12479 4168 ft 255 kts 96°
2026-05-08 08:15 53.41155 -6.09442 5081 ft 264 kts 96°
2026-05-08 08:15 53.40986 -6.06371 6168 ft 268 kts 97°
2026-05-08 08:15 53.40655 -6.03266 7073 ft 273 kts 112°
2026-05-08 08:16 53.39664 -6.00615 8074 ft 270 kts 139°
2026-05-08 08:16 53.38104 -5.98985 9020 ft 269 kts 163°
2026-05-08 08:16 53.36265 -5.98534 9974 ft 269 kts 185°
2026-05-08 08:16 53.34421 -5.99186 10829 ft 272 kts 196°
2026-05-08 08:17 53.32561 -6.00028 11475 ft 286 kts 195°
2026-05-08 08:17 53.30562 -6.00920 11906 ft 307 kts 196°
2026-05-08 08:17 53.28458 -6.01914 12457 ft 321 kts 197°
2026-05-08 08:17 53.26282 -6.03007 13233 ft 327 kts 198°
2026-05-08 08:18 53.24085 -6.04116 14072 ft 332 kts 198°
2026-05-08 08:18 53.21883 -6.05229 14834 ft 336 kts 198°
2026-05-08 08:18 53.19642 -6.06324 15656 ft 339 kts 193°
2026-05-08 08:18 53.17284 -6.06795 16459 ft 343 kts 187°
2026-05-08 08:19 53.14881 -6.06683 17228 ft 350 kts 170°
2026-05-08 08:19 53.12525 -6.05547 18017 ft 354 kts 167°
2026-05-08 08:19 53.10131 -6.04491 18666 ft 358 kts 168°
2026-05-08 08:19 53.07711 -6.03454 19295 ft 361 kts 168°
2026-05-08 08:20 53.05261 -6.02422 19886 ft 365 kts 168°
2026-05-08 08:20 53.02807 -6.01398 20510 ft 369 kts 169°
2026-05-08 08:20 53.00274 -6.00345 21124 ft 372 kts 169°
2026-05-08 08:20 52.97774 -5.99309 21706 ft 376 kts 169°
2026-05-08 08:21 52.95207 -5.98246 22319 ft 380 kts 169°
2026-05-08 08:21 52.92657 -5.97192 22898 ft 383 kts 169°
2026-05-08 08:21 52.90056 -5.96118 23475 ft 387 kts 169°
2026-05-08 08:21 52.87424 -5.95033 23969 ft 391 kts 170°
2026-05-08 08:22 52.84771 -5.93940 24430 ft 394 kts 169°
2026-05-08 08:22 52.82089 -5.92838 24857 ft 398 kts 170°
2026-05-08 08:22 52.79388 -5.91728 25322 ft 401 kts 170°
2026-05-08 08:22 52.76668 -5.90612 25782 ft 404 kts 170°
2026-05-08 08:23 52.73960 -5.89503 26213 ft 407 kts 170°
2026-05-08 08:23 52.71176 -5.88364 26654 ft 411 kts 171°
2026-05-08 08:23 52.68422 -5.87238 27083 ft 414 kts 171°
2026-05-08 08:23 52.65616 -5.86092 27510 ft 417 kts 171°
2026-05-08 08:24 52.62787 -5.84939 27935 ft 420 kts 171°
2026-05-08 08:24 52.59939 -5.83779 28315 ft 423 kts 171°
2026-05-08 08:24 52.57061 -5.82609 28702 ft 426 kts 171°
2026-05-08 08:24 52.54201 -5.81449 29102 ft 429 kts 171°
2026-05-08 08:25 52.51297 -5.80271 29493 ft 432 kts 171°
2026-05-08 08:25 52.48360 -5.79082 29880 ft 435 kts 172°
2026-05-08 08:25 52.45433 -5.77898 30235 ft 437 kts 172°
2026-05-08 08:25 52.42468 -5.76700 30557 ft 440 kts 172°
2026-05-08 08:26 52.40487 -5.75888 30775 ft 442 kts 170°
2026-05-08 08:26 52.36556 -5.73969 31209 ft 446 kts 169°
2026-05-08 08:26 52.33565 -5.72525 31489 ft 449 kts 169°
2026-05-08 08:26 52.30555 -5.71084 31807 ft 451 kts 169°
2026-05-08 08:27 52.27539 -5.69646 32122 ft 453 kts 169°
2026-05-08 08:27 52.25521 -5.68685 32320 ft 455 kts 169°
2026-05-08 08:27 52.22547 -5.66908 32624 ft 461 kts 163°
2026-05-08 08:27 52.19561 -5.64908 32933 ft 463 kts 163°
2026-05-08 08:28 52.16570 -5.62898 33257 ft 465 kts 163°
2026-05-08 08:28 52.13584 -5.60889 33646 ft 464 kts 163°
2026-05-08 08:28 52.10630 -5.58904 34004 ft 464 kts 163°
2026-05-08 08:28 52.07606 -5.56873 34347 ft 464 kts 163°
2026-05-08 08:29 52.04661 -5.54878 34692 ft 465 kts 161°
2026-05-08 08:29 52.01750 -5.52544 35049 ft 465 kts 159°
2026-05-08 08:29 51.98867 -5.50234 35403 ft 464 kts 159°
2026-05-08 08:29 51.95957 -5.47933 35775 ft 463 kts 159°
2026-05-08 08:30 51.93063 -5.45659 36118 ft 462 kts 159°
2026-05-08 08:30 51.90168 -5.43389 36450 ft 461 kts 159°
2026-05-08 08:30 51.84386 -5.38870 37098 ft 460 kts 159°
2026-05-08 08:31 51.81508 -5.36625 37411 ft 459 kts 159°
2026-05-08 08:31 51.78667 -5.34412 37718 ft 458 kts 159°
2026-05-08 08:31 51.75813 -5.32193 38007 ft 457 kts 159°
2026-05-08 08:31 51.72943 -5.29964 38313 ft 456 kts 159°
2026-05-08 08:32 51.70078 -5.27742 38605 ft 456 kts 159°
2026-05-08 08:32 51.67212 -5.25521 38822 ft 455 kts 159°
2026-05-08 08:32 51.64358 -5.23314 39006 ft 454 kts 158°
2026-05-08 08:32 51.61503 -5.21110 39048 ft 455 kts 158°
2026-05-08 08:33 51.55837 -5.16743 39035 ft 453 kts 158°
2026-05-08 08:33 51.50230 -5.12143 39015 ft 458 kts 147°
2026-05-08 08:34 51.45372 -5.05451 39002 ft 462 kts 143°
2026-05-08 08:34 51.40531 -4.98681 39028 ft 462 kts 142°
2026-05-08 08:35 51.35743 -4.91942 39028 ft 461 kts 142°
2026-05-08 08:35 51.30921 -4.85165 39026 ft 461 kts 142°
2026-05-08 08:36 51.26084 -4.78387 39031 ft 461 kts 142°
2026-05-08 08:36 51.21276 -4.71670 39019 ft 462 kts 142°
2026-05-08 08:37 51.16438 -4.64930 39026 ft 462 kts 142°
2026-05-08 08:37 51.11609 -4.58222 39029 ft 462 kts 142°
2026-05-08 08:38 51.06761 -4.51506 39028 ft 462 kts 142°
2026-05-08 08:38 51.01614 -4.45407 39028 ft 456 kts 152°
2026-05-08 08:39 50.96276 -4.40046 39021 ft 457 kts 151°
2026-05-08 08:39 50.90880 -4.34663 39024 ft 458 kts 151°
2026-05-08 08:40 50.85511 -4.29326 39022 ft 458 kts 152°
2026-05-08 08:40 50.80115 -4.23976 39024 ft 457 kts 152°
2026-05-08 08:41 50.74855 -4.18775 39009 ft 458 kts 151°
2026-05-08 08:41 50.69477 -4.13474 39020 ft 459 kts 151°
2026-05-08 08:42 50.64048 -4.08134 39028 ft 459 kts 152°
2026-05-08 08:42 50.58627 -4.02819 39019 ft 458 kts 152°
2026-05-08 08:43 50.53252 -3.97563 39025 ft 458 kts 152°
2026-05-08 08:43 50.47834 -3.92279 39022 ft 458 kts 152°
2026-05-08 08:44 50.42412 -3.87005 39019 ft 458 kts 152°
2026-05-08 08:44 50.36986 -3.81743 39027 ft 458 kts 152°
2026-05-08 08:45 50.31572 -3.76506 39021 ft 458 kts 152°
2026-05-08 08:45 50.26177 -3.71302 39021 ft 458 kts 152°
2026-05-08 08:46 50.20748 -3.66079 39021 ft 458 kts 152°
2026-05-08 08:46 50.15280 -3.60833 39026 ft 460 kts 152°
2026-05-08 08:47 50.09861 -3.55647 39020 ft 460 kts 152°
2026-05-08 08:47 50.04397 -3.50433 39028 ft 460 kts 152°
2026-05-08 08:48 49.98930 -3.45229 39033 ft 460 kts 152°
2026-05-08 08:48 49.93460 -3.40038 39031 ft 460 kts 152°
2026-05-08 08:49 49.88005 -3.34872 39029 ft 460 kts 152°
2026-05-08 08:49 49.82568 -3.29736 39030 ft 460 kts 152°
2026-05-08 08:50 49.76878 -3.25456 39019 ft 448 kts 171°
2026-05-08 08:50 49.70801 -3.23081 39011 ft 451 kts 169°
2026-05-08 08:51 49.64712 -3.20746 39027 ft 451 kts 170°
2026-05-08 08:51 49.58659 -3.18476 39028 ft 450 kts 170°
2026-05-08 08:52 49.52559 -3.16197 39029 ft 450 kts 170°
2026-05-08 08:52 49.46463 -3.13926 39021 ft 450 kts 170°
2026-05-08 08:53 49.40379 -3.11666 39023 ft 451 kts 170°
2026-05-08 08:53 49.34250 -3.09394 39028 ft 453 kts 170°
2026-05-08 08:54 49.28149 -3.07139 39024 ft 453 kts 170°
2026-05-08 08:54 49.22008 -3.04875 39017 ft 452 kts 170°
2026-05-08 08:55 49.15934 -3.02641 39021 ft 452 kts 170°
2026-05-08 08:55 49.09824 -3.00399 39021 ft 452 kts 170°
2026-05-08 08:56 49.03700 -2.98158 39006 ft 452 kts 170°
2026-05-08 08:56 48.97587 -2.95927 39017 ft 450 kts 170°
2026-05-08 08:57 48.91541 -2.93726 39017 ft 450 kts 170°
2026-05-08 08:57 48.85435 -2.91508 39021 ft 450 kts 170°
2026-05-08 08:58 48.79338 -2.89300 39017 ft 450 kts 170°
2026-05-08 08:58 48.73245 -2.87098 39016 ft 450 kts 170°
2026-05-08 08:59 48.67168 -2.84907 39020 ft 450 kts 170°
2026-05-08 08:59 48.61056 -2.82710 39007 ft 450 kts 170°
2026-05-08 09:00 48.55011 -2.80542 39010 ft 448 kts 170°
2026-05-08 09:00 48.48940 -2.78369 39015 ft 448 kts 170°
2026-05-08 09:01 48.42864 -2.76200 39012 ft 449 kts 170°
2026-05-08 09:01 48.36783 -2.74035 39000 ft 447 kts 170°
2026-05-08 09:02 48.30763 -2.71897 39001 ft 447 kts 170°
2026-05-08 09:02 48.24708 -2.69752 39000 ft 447 kts 170°
2026-05-08 09:03 48.18659 -2.67614 38978 ft 447 kts 170°
2026-05-08 09:03 48.12635 -2.65490 38990 ft 446 kts 170°
2026-05-08 09:04 48.06577 -2.63359 38985 ft 446 kts 170°
2026-05-08 09:04 48.00520 -2.61234 38986 ft 446 kts 170°
2026-05-08 09:05 47.94482 -2.59120 38985 ft 446 kts 170°
2026-05-08 09:05 47.88461 -2.57017 38979 ft 446 kts 170°
2026-05-08 09:06 47.82412 -2.54909 38978 ft 446 kts 170°
2026-05-08 09:06 47.76353 -2.52802 38952 ft 446 kts 170°
2026-05-08 09:07 47.70367 -2.50403 38957 ft 453 kts 158°
2026-05-08 09:07 47.67706 -2.47962 38966 ft 459 kts 142°
2026-05-08 09:07 47.65455 -2.44576 38979 ft 464 kts 135°
2026-05-08 09:08 47.61147 -2.37410 38966 ft 466 kts 134°
2026-05-08 09:08 47.56883 -2.30172 38955 ft 466 kts 134°
2026-05-08 09:09 47.52627 -2.22920 38962 ft 466 kts 134°
2026-05-08 09:09 47.48399 -2.15731 38965 ft 466 kts 134°
2026-05-08 09:10 47.44141 -2.08511 38964 ft 465 kts 134°
2026-05-08 09:10 47.39874 -2.01295 38966 ft 468 kts 134°
2026-05-08 09:11 47.35587 -1.94062 38949 ft 468 kts 134°
2026-05-08 09:11 47.31313 -1.86846 38954 ft 467 kts 134°
2026-05-08 09:12 47.27756 -1.80856 38962 ft 467 kts 134°
2026-05-08 09:12 47.23468 -1.73652 38964 ft 467 kts 134°
2026-05-08 09:13 47.19204 -1.66508 38964 ft 467 kts 134°
2026-05-08 09:13 47.14748 -1.59581 38966 ft 464 kts 141°
2026-05-08 09:14 47.09971 -1.53247 38952 ft 464 kts 142°
2026-05-08 09:14 47.05154 -1.46917 38956 ft 464 kts 142°
2026-05-08 09:15 47.00348 -1.40622 38953 ft 464 kts 142°
2026-05-08 09:15 46.95533 -1.34319 38953 ft 464 kts 142°
2026-05-08 09:16 46.90711 -1.28018 38965 ft 463 kts 142°
2026-05-08 09:16 46.85899 -1.21745 38954 ft 463 kts 142°
2026-05-08 09:17 46.81108 -1.15515 38973 ft 466 kts 142°
2026-05-08 09:17 46.76261 -1.09229 38956 ft 466 kts 142°
2026-05-08 09:18 46.71410 -1.02952 38966 ft 466 kts 142°
2026-05-08 09:18 46.66573 -0.96709 38969 ft 466 kts 142°
2026-05-08 09:19 46.61743 -0.90491 38960 ft 466 kts 142°
2026-05-08 09:19 46.56889 -0.84238 38971 ft 466 kts 142°
2026-05-08 09:20 46.52047 -0.78000 38961 ft 465 kts 142°
2026-05-08 09:20 46.47196 -0.71765 38965 ft 467 kts 142°
2026-05-08 09:21 46.42063 -0.66264 38932 ft 454 kts 162°
2026-05-08 09:23 46.21177 -0.56255 38964 ft 451 kts 167°
2026-05-08 09:23 46.15184 -0.53506 38951 ft 451 kts 167°
2026-05-08 09:24 46.09247 -0.50789 38965 ft 450 kts 167°
2026-05-08 09:24 46.03283 -0.48066 38965 ft 450 kts 167°
2026-05-08 09:25 45.97328 -0.45354 38960 ft 449 kts 167°
2026-05-08 09:25 45.91355 -0.42639 38956 ft 448 kts 167°
2026-05-08 09:26 45.85428 -0.39951 38966 ft 448 kts 167°
2026-05-08 09:26 45.79471 -0.37256 38960 ft 448 kts 167°
2026-05-08 09:27 45.73567 -0.34591 38958 ft 448 kts 167°
2026-05-08 09:27 45.67621 -0.31912 38964 ft 447 kts 167°
2026-05-08 09:28 45.61887 -0.28321 38972 ft 452 kts 159°
2026-05-08 09:28 45.56208 -0.24413 38957 ft 452 kts 159°
2026-05-08 09:29 45.50562 -0.20518 38959 ft 451 kts 159°
2026-05-08 09:29 45.44907 -0.16624 38961 ft 451 kts 159°
2026-05-08 09:30 45.39289 -0.12763 38963 ft 451 kts 159°
2026-05-08 09:30 45.33611 -0.08871 38958 ft 451 kts 159°
2026-05-08 09:31 45.28011 -0.05040 38961 ft 450 kts 159°
2026-05-08 09:31 45.22368 -0.01188 38960 ft 450 kts 159°
2026-05-08 09:32 45.16698 0.02673 38952 ft 452 kts 159°
2026-05-08 09:32 45.11003 0.06544 38958 ft 452 kts 159°
2026-05-08 09:33 45.05370 0.10364 38872 ft 452 kts 159°
2026-05-08 09:33 45.02546 0.12267 38374 ft 448 kts 159°
2026-05-08 09:33 44.99731 0.14163 37791 ft 445 kts 159°
2026-05-08 09:33 44.96953 0.16033 37367 ft 438 kts 159°
2026-05-08 09:34 44.94231 0.17862 37019 ft 431 kts 159°
2026-05-08 09:34 44.91487 0.19704 36670 ft 441 kts 159°
2026-05-08 09:34 44.88724 0.21558 36326 ft 447 kts 159°
2026-05-08 09:34 44.85917 0.23439 35975 ft 452 kts 159°
2026-05-08 09:35 44.83057 0.25354 35622 ft 456 kts 159°
2026-05-08 09:35 44.80180 0.27277 35280 ft 458 kts 159°
2026-05-08 09:35 44.77308 0.29195 34942 ft 459 kts 159°
2026-05-08 09:35 44.74420 0.31122 34609 ft 460 kts 159°
2026-05-08 09:36 44.71524 0.33052 34271 ft 461 kts 159°
2026-05-08 09:36 44.68614 0.34989 33927 ft 462 kts 159°
2026-05-08 09:36 44.65703 0.36925 33537 ft 463 kts 159°
2026-05-08 09:36 44.62802 0.38851 33151 ft 465 kts 159°
2026-05-08 09:37 44.59851 0.40808 32732 ft 469 kts 159°
2026-05-08 09:37 44.56936 0.42740 32326 ft 470 kts 158°
2026-05-08 09:37 44.53979 0.44698 31906 ft 471 kts 158°
2026-05-08 09:37 44.51011 0.46661 31481 ft 472 kts 158°
2026-05-08 09:38 44.48025 0.48632 31039 ft 473 kts 158°
2026-05-08 09:38 44.45041 0.50600 30574 ft 474 kts 158°
2026-05-08 09:38 44.42044 0.52575 30126 ft 477 kts 158°
2026-05-08 09:38 44.39057 0.54542 29355 ft 473 kts 158°
2026-05-08 09:39 44.36132 0.56464 28696 ft 468 kts 158°
2026-05-08 09:39 44.33213 0.58381 28039 ft 464 kts 158°
2026-05-08 09:39 44.30293 0.60297 27380 ft 460 kts 157°
2026-05-08 09:39 44.27408 0.62187 26730 ft 457 kts 157°
2026-05-08 09:40 44.24538 0.64066 26081 ft 453 kts 157°
2026-05-08 09:40 44.21691 0.65927 25431 ft 450 kts 157°
2026-05-08 09:40 44.18870 0.67770 24802 ft 448 kts 157°
2026-05-08 09:40 44.16066 0.69600 24183 ft 445 kts 157°
2026-05-08 09:41 44.13260 0.71428 23537 ft 443 kts 157°
2026-05-08 09:41 44.10508 0.73220 22819 ft 440 kts 157°
2026-05-08 09:41 44.07710 0.75039 22164 ft 436 kts 157°
2026-05-08 09:41 44.05010 0.76794 21560 ft 431 kts 157°
2026-05-08 09:42 44.02316 0.78543 20963 ft 427 kts 157°
2026-05-08 09:42 43.99628 0.80286 20376 ft 422 kts 156°
2026-05-08 09:42 43.96975 0.82006 19800 ft 418 kts 156°
2026-05-08 09:42 43.94364 0.83697 19241 ft 414 kts 156°
2026-05-08 09:43 43.91690 0.85047 18708 ft 406 kts 170°
2026-05-08 09:43 43.88911 0.85177 18300 ft 396 kts 188°
2026-05-08 09:43 43.86291 0.84117 17828 ft 389 kts 205°
2026-05-08 09:43 43.83991 0.82205 17368 ft 383 kts 213°
2026-05-08 09:44 43.81822 0.80173 16924 ft 377 kts 214°
2026-05-08 09:44 43.79681 0.78108 16494 ft 372 kts 214°
2026-05-08 09:44 43.77571 0.76046 16067 ft 367 kts 214°
2026-05-08 09:44 43.75507 0.74011 15640 ft 362 kts 215°
2026-05-08 09:45 43.73469 0.71992 15213 ft 359 kts 215°
2026-05-08 09:45 43.71447 0.69985 14796 ft 359 kts 215°
2026-05-08 09:45 43.69425 0.67980 14393 ft 356 kts 215°
2026-05-08 09:45 43.67417 0.65987 13988 ft 353 kts 215°
2026-05-08 09:46 43.65436 0.64023 13561 ft 349 kts 215°
2026-05-08 09:46 43.63472 0.62080 13118 ft 345 kts 215°
2026-05-08 09:46 43.61529 0.60157 12686 ft 342 kts 215°
2026-05-08 09:46 43.59623 0.58273 12253 ft 339 kts 214°
2026-05-08 09:47 43.57714 0.56387 11872 ft 334 kts 214°
2026-05-08 09:47 43.55832 0.54530 11495 ft 330 kts 214°
2026-05-08 09:47 43.53972 0.52695 11129 ft 327 kts 214°
2026-05-08 09:47 43.52136 0.50885 10737 ft 324 kts 214°
2026-05-08 09:48 43.50307 0.49084 10359 ft 322 kts 214°
2026-05-08 09:48 43.48492 0.47298 9983 ft 319 kts 214°
2026-05-08 09:48 43.46711 0.45547 9597 ft 317 kts 214°
2026-05-08 09:48 43.44943 0.43811 9432 ft 307 kts 214°
2026-05-08 09:49 43.43275 0.42040 9278 ft 299 kts 224°
2026-05-08 09:49 43.42137 0.39718 9181 ft 290 kts 245°
2026-05-08 09:49 43.41416 0.37158 8956 ft 285 kts 245°
2026-05-08 09:49 43.40637 0.34662 8500 ft 282 kts 245°
2026-05-08 09:50 43.39874 0.32211 7928 ft 282 kts 245°
2026-05-08 09:50 43.39108 0.29743 7398 ft 279 kts 245°
2026-05-08 09:50 43.38348 0.27287 6890 ft 278 kts 245°
2026-05-08 09:50 43.37593 0.24851 6351 ft 276 kts 245°
2026-05-08 09:51 43.36847 0.22448 5857 ft 274 kts 246°
2026-05-08 09:51 43.36100 0.20044 5327 ft 273 kts 245°
2026-05-08 09:51 43.35360 0.17658 4864 ft 270 kts 246°
2026-05-08 09:51 43.34632 0.15313 4590 ft 265 kts 246°
2026-05-08 09:52 43.33907 0.12985 4327 ft 263 kts 246°
2026-05-08 09:52 43.33196 0.10701 4157 ft 257 kts 246°
2026-05-08 09:52 43.32497 0.08484 3910 ft 246 kts 243°
2026-05-08 09:52 43.31485 0.06700 3684 ft 229 kts 220°
2026-05-08 09:53 43.30205 0.05606 3454 ft 214 kts 204°
2026-05-08 09:53 43.28853 0.04906 3184 ft 199 kts 198°
2026-05-08 09:53 43.27626 0.04318 2943 ft 177 kts 199°
2026-05-08 09:53 43.26505 0.03751 2712 ft 170 kts 200°
2026-05-08 09:54 43.25418 0.03199 2514 ft 161 kts 200°
2026-05-08 09:54 43.24387 0.02674 2294 ft 154 kts 200°
2026-05-08 09:54 43.23395 0.02168 2073 ft 152 kts 200°
2026-05-08 09:54 43.22409 0.01662 1874 ft 151 kts 200°
2026-05-08 09:55 43.21416 0.01167 1670 ft 154 kts 200°
2026-05-08 09:55 43.20407 0.00669 1463 ft 152 kts 201°
2026-05-08 09:55 43.19425 0.00154 1267 ft 152 kts 201°
2026-05-08 09:55 43.18466 -0.00329 1204 ft 131 kts 200°
2026-05-08 09:56 43.17850 -0.00640 1221 ft 67 kts 200°
2026-05-08 09:56 43.17465 -0.00834 1233 ft 53 kts 201°
2026-05-08 09:56 43.17213 -0.00962 1252 ft 21 kts 199°
2026-05-08 09:56 43.17124 -0.00991 1250 ft 9 kts 164°
2026-05-08 09:57 43.17071 -0.00797 1253 ft 14 kts 66°
2026-05-08 09:57 43.17167 -0.00724 1247 ft 19 kts 21°
2026-05-08 09:57 43.17309 -0.00652 1236 ft 24 kts 19°
2026-05-08 09:58 43.17486 -0.00564 1230 ft 29 kts 20°
2026-05-08 09:58 43.17673 -0.00452 1225 ft 25 kts 28°
2026-05-08 09:58 43.17817 -0.00342 1221 ft 25 kts 29°
2026-05-08 09:58 43.17980 -0.00219 1216 ft 29 kts 29°
2026-05-08 09:59 43.18168 -0.00075 1210 ft 32 kts 30°
2026-05-08 09:59 43.18313 0.00036 1203 ft 17 kts 28°
2026-05-08 09:59 43.18398 0.00099 1204 ft 11 kts 28°
2026-05-08 09:59 43.18426 0.00175 1202 ft 10 kts 100°
2026-05-08 10:00 43.18423 0.00250 1201 ft 7 kts 60°
2026-05-08 10:00 43.18461 0.00295 1200 ft 6 kts 37°
2026-05-08 10:00 43.18473 0.00307 1200 ft 2 kts 37°
2026-05-08 10:00 43.18476 0.00310 1200 ft 0 kts 36°